Regional Weather Roundup
Issued by NWS

Home | Current Version | Previous Version | Graphics & Text | Print | Product List | Glossary On
Versions: 1 2 3 4 5 6 7 8 9 10 11 12 13 14 15 16 17 18 19 20 21 22 23 24 25 26 27 28 29 30 31 32 33 34 35 36 37 38 39 40 41 42 43 44 45 46 47 48 49 50
000
ASUS43 KIND 302109
RWRIN

WEATHER ROUNDUP FOR INDIANA
NATIONAL WEATHER SERVICE INDIANAPOLIS IN
500 PM EDT SAT AUG 30 2014

NOTE: "FAIR" INDICATES FEW OR NO CLOUDS BELOW 12,000 FEET WITH NO
SIGNIFICANT WEATHER AND/OR OBSTRUCTIONS TO VISIBILITY.

* - STATION DOES NOT REPORT WEATHER SUCH AS PRECIPITATION OR FOG.

+ - STATION NOT QUALITY CONTROLLED BY THE NATIONAL WEATHER SERVICE.
    USE DATA WITH CAUTION...ESPECIALLY DEWPOINT AND RELATIVE
    HUMIDITY OBSERVATIONS.

INZ001>003-010>013-019-020-302200-
NORTHWEST INDIANA

CITY           SKY/WX    TMP DP  RH WIND       PRES   REMARKS
GARY /AIRPORT/ PTSUNNY   84  70  61 SW14G28   29.84F
KNOX *+        PTSUNNY   82  69  66 SW14      29.86F
LA PORTE +     PTSUNNY   79  70  74 SW14G21   29.87F
MICHIGAN CITY+ PTSUNNY   79  68  69 S10       29.85F
MONTICELLO +   PTSUNNY   82  71  71 S16G22    29.90F
RENSSELAER +   PTSUNNY   82  72  69 SW14      29.88F
VALPARAISO     CLOUDY    80  71  74 SW13      29.87F

$$

LMZ046-743>745-302200-
SOUTHERN LAKE MICHIGAN

STATION/POSITION TIME  TEMP WIND        PRES
                       AIR  DIR/SP/G
                 (UTC) (F)  (DEG/KT/KT) (MB)
MICHIGAN CITY    2100   79  190/ 14/ 18   N/A

$$

INZ004-005-014>016-021>024-302200-
NORTH CENTRAL INDIANA

CITY           SKY/WX    TMP DP  RH WIND       PRES   REMARKS
GOSHEN         PTSUNNY   84  69  60 S22       29.88F
LOGANSPORT +   PTSUNNY   82  68  61 SW15G22   29.92F
PERU/GRISSOM   PTSUNNY   81  75  83 SW16      29.92F
ROCHESTER +    PTSUNNY   84  70  61 SW15G23   29.90F
SOUTH BEND     PTSUNNY   80  70  71 SW15      29.88S
WARSAW +       CLOUDY    81  70  69 SW10      29.90F

$$

INZ006>009-017-018-025>027-302200-
NORTHEAST INDIANA

CITY           SKY/WX    TMP DP  RH WIND       PRES   REMARKS
ANGOLA *+      MOSUNNY   84  73  70 SW17      29.90F
AUBURN +       PTSUNNY   82  66  57 S13G20    29.92F
FORT WAYNE     PTSUNNY   80  69  69 SW16      29.93F
HUNTINGTON +   MOSUNNY   80  70  72 SW10      29.92F

$$

INZ028-029-035-036-043>045-051>053-302200-
WEST CENTRAL INDIANA

CITY           SKY/WX    TMP DP  RH WIND       PRES   REMARKS
GREENCASTLE +  CLOUDY    77  70  78 S8        29.98S
LAFAYETTE      PTSUNNY   82  71  69 SW10      29.90F
TERRE HAUTE    CLOUDY    79  70  74 S13       29.97S

$$

INZ030>032-037>040-046>048-054>057-064-065-302200-
CENTRAL INDIANA

CITY           SKY/WX    TMP DP  RH WIND       PRES   REMARKS
CP ATTERBURY + DRIZZLE   77  72  83 S9        30.00F
COLUMBUS       CLOUDY    77  73  88 S9        30.01F
FRANKFORT +    PTSUNNY   81  70  68 SW12G21   29.95F
INDIANAPOLIS   CLOUDY    78  69  73 S16       29.96F
-EAGLE CREEK   CLOUDY    78  68  71 S8        29.96F
KOKOMO *+      PTSUNNY   81  70  69 SW17      29.93F
MARION +       PTSUNNY   80  68  66 SW14G21   29.95F
MT COMFORT *+  CLOUDY    77  73  88 S10       29.99S
SHELBYVILLE    CLOUDY    78  70  76 S15       29.99F
ZIONSVILLE +   PTSUNNY   78  67  68 S14G20    29.97S

$$

INZ033-034-041-042-049-050-058-059-302200-
EAST CENTRAL INDIANA

CITY           SKY/WX    TMP DP  RH WIND       PRES   REMARKS
MUNCIE         PTSUNNY   79  69  71 S10G22    29.96F

$$

INZ060-061-067>069-081>083-085>088-302200-
SOUTHWEST INDIANA

CITY           SKY/WX    TMP DP  RH WIND       PRES   REMARKS
EVANSVILLE     LGT RAIN  75  71  87 SW10      30.02R
WASHINGTON +   CLOUDY    75  75  98 S6        29.99F

$$

INZ062-063-066-070>080-084-089>092-302200-
SOUTH CENTRAL AND SOUTHEAST INDIANA

CITY           SKY/WX    TMP DP  RH WIND       PRES   REMARKS
BLOOMINGTON    CLOUDY    77  72  84 S9        29.99F
SEYMOUR +      CLOUDY    81  64  57 S6        30.01S

$$



USA.gov is the U.S. government's official web portal to all federal, state and local government web resources and services.